User: anonymous   Login
Location: Caltech
(34.1382°N, 118.1253°W)
Time: 19:21:16
(UTC-07:00)
Language:

IDEFIX/ARIANE 42P - Orbit

View from above orbital plane
View from above orbital plane
View from above satellite
View from above satellite

Ground track
Ground track

The orbit data is extracted from the following two-line orbital elements,

1 27422U 02021B   16178.52369367 -.00000013  00000-0  10693-4 0  9994
2 27422  98.2297 192.5313 0011689 205.4056 154.6554 14.29245705735876
Epoch (UTC): 26 June 2016 12:34:07
Eccentricity: 0.0011689
inclination: 98.2297°
perigee height: 786 km
apogee height: 802 km
right ascension of ascending node: 192.5313°
argument of perigee: 205.4056°
revolutions per day: 14.29245705
mean anomaly at epoch: 154.6554°
orbit number at epoch: 73587

The dashed part of the orbit path shows where the satellite is in the earth's shadow,  

DLR